Terminal Aerodrome Forecast
Issued by NWS

Home | Current Version | Previous Version | Text Only | Print | Product List | Glossary On
Versions: 1 2 3 4 5 6 7 8 9 10 11 12 13 14 15 16 17 18 19 20 21 22 23 24 25 26 27 28 29 30 31 32
000
FTUS44 KOHX 080524
TAFCKV
TAF
KCKV 080524Z 0806/0906 20007KT 6SM -RA BR BKN100
     FM080700 21006KT 6SM BR BKN080
     FM081000 20003KT 1 1/2SM BR OVC007
     FM081300 23008KT 4SM BR OVC015
     FM081600 23012G22KT P6SM BKN050 BKN250
     FM090000 20009KT P6SM BKN250=

USA.gov is the U.S. government's official web portal to all federal, state and local government web resources and services.